Regional Weather Roundup
Issued by NWS Sterling, VA

Home | Current Version | Previous Version | Text Only | Print | Product List | Glossary Off
Versions: 1 2 3 4 5 6 7 8 9 10 11 12 13 14 15 16 17 18 19 20 21 22 23 24 25 26 27

000
ASUS41 KLWX 280311
RWRLWX

REGIONAL WEATHER ROUNDUP
NATIONAL WEATHER SERVICE BALTIMORE MD/WASHINGTON DC
1100 PM EDT SAT MAY 27 2017

Note: "FAIR" indicates few or no clouds below 12,000 feet
with no significant weather and/or obstructions to visibility.
 TC=TEMPERATURE CELSIUS

 * =Non NWS site. Station does not report precipitation (e.g. rain,
    snow, etc.), thunder, or fog.

DCZ001-MDZ009-015-VAZ040>042-051-053>054-280400-
WASHINGTON METRO

CITY           SKY/WX    TMP DP  RH WIND       PRES   REMARKS
WASHINGTON NAT CLOUDY    67  62  84 NE6       29.92S
DULLES         CLOUDY    64  62  93 CALM      29.92S
ANDREWS AFB    MOCLDY    64  60  86 NE3       29.91S
FT BELVOIR     CLOUDY    66  60  81 CALM      29.92S
QUANTICO       CLOUDY    68  63  84 NE8       29.92F
COLLEGE PARK*  CLOUDY    64  59  86 CALM      29.92F
LEESBURG*      CLOUDY    66  64  94 CALM      29.93F
MANASSAS*      CLOUDY    67  61  81 CALM      29.93S
GAITHERSBURG*  CLOUDY    61  59  93 CALM      29.94S

$$

MDZ006>007-011-014-280400-
BALTIMORE METRO

CITY           SKY/WX    TMP DP  RH WIND       PRES   REMARKS
BWI AIRPORT    CLOUDY    64  62  93 CALM      29.93R
MD SCIENCE CTR   N/A     66  61  84 MISG      29.94R
MARTIN STATE   CLOUDY    63  63 100 CALM      29.94S
ANNAPOLIS      CLOUDY    66  64  93 NW3       29.93R
FORT MEADE*    CLOUDY    61  59  94 CALM      29.96R

$$

MDZ012-015-019>023-280400-
MARYLAND EASTERN SHORE

CITY           SKY/WX    TMP DP  RH WIND       PRES   REMARKS
OCEAN CITY     CLOUDY    63  57  81 E5        29.92S
SALISBURY      PTCLDY    64  57  78 E5        29.91R
BAY BRIDGE AP* CLOUDY    64  61  88 CALM      29.93R
CAMBRIDGE*     CLOUDY    66  61  82 CALM      29.91R
EASTON*        PTCLDY    64  58  80 E5        29.95S

$$

MDZ017>025-280400-
SOUTHERN MARYLAND

CITY           SKY/WX    TMP DP  RH WIND       PRES   REMARKS
PATUXENT RIVER CLOUDY    68  66  93 S3        29.90R
ST INIGOES     CLOUDY    68  63  84 NE5       29.90R
LEONARDTOWN*   CLOUDY    64  63  94 CALM      29.92S

$$

MDZ003>005-280400-
NORTH CENTRAL MARYLAND

CITY           SKY/WX    TMP DP  RH WIND       PRES   REMARKS
FREDERICK*     MOCLDY    63  63 100 CALM      29.96R FOG
HAGERSTOWN APT CLOUDY    63  62  97 CALM      29.91S FOG
WESTMINSTER*   CLOUDY    63  63 100 CALM      29.93S FOG

$$

MDZ501>502-280400-
WESTERN MARYLAND

CITY           SKY/WX    TMP DP  RH WIND       PRES   REMARKS
OAKLAND*       FOG       57  57 100 CALM      29.98R VSB 1/4
CUMBERLAND*    CLOUDY    63  63 100 CALM      29.96S

$$

VAZ025>031-280400-
SHENANDOAH VALLEY

CITY           SKY/WX    TMP DP  RH WIND       PRES   REMARKS
WINCHESTER*    CLOUDY    61  61 100 CALM      29.93S
FRONT ROYAL*   CLOUDY    64  63  94 CALM      29.91S
LURAY*         CLOUDY    64  63  94 N5        29.93R
NEW MARKET*    CLOUDY    64  60  87 N3        29.92R
STAUNTON*      CLOUDY    66  63  90 CALM      29.95R
WAYNESBORO*    MOCLDY    66  65  96 SE3       29.95R

$$

WVZ021-048>050-054>055-280400-
EASTERN WEST VIRGINIA PANHANDLE

CITY           SKY/WX    TMP DP  RH WIND       PRES   REMARKS
MARTINSBURG    CLOUDY    61  60  97 CALM      29.92R FOG
PETERSBURG*    CLOUDY    65  64  94 CALM      29.94S

$$

VAZ036>039-050-280400-
CENTRAL FOOTHILLS

CITY           SKY/WX    TMP DP  RH WIND       PRES   REMARKS
CHARLOTTESVILL CLOUDY    68  65  90 NE6       29.92R
CULPEPER*      CLOUDY    66  64  92 N3        29.93S
ORANGE*        CLOUDY    64  63  94 N3        29.93R
GORDONSVILLE*  CLOUDY    67  65  92 CALM      29.92R
WARRENTON*     CLOUDY    67  60  78 CALM      29.92S

$$

VAZ055>057-280400-
NORTH AND CENTRAL PIEDMONT

CITY           SKY/WX    TMP DP  RH WIND       PRES   REMARKS
FREDERICKSBRG* PTCLDY    67  63  87 N3        29.90S
STAFFORD*      MOCLDY    64  62  92 CALM      29.95S

$$

NCZ024-NYZ072-PAZ021-071-VAZ022-071-280400-
OTHER REGIONAL OBSERVATIONS

CITY           SKY/WX    TMP DP  RH WIND       PRES   REMARKS
NEW YORK CITY  CLOUDY    63  56  78 VRB3      29.95R
PHILADELPHIA   CLOUDY    65  59  81 SW6       29.91S
PITTSBURGH     PTCLDY    63  61  93 CALM      29.90S
ROANOKE        CLOUDY    74  66  76 W6        29.92R
RICHMOND       CLOUDY    66  63  90 N6        29.89R
RALEIGH        CLOUDY    76  67  73 SW6       29.89R

$$

ANZ530>537-280400-
MARINE OBSERVATIONS

STATION/POSITION TIME  TEMP    WIND        PRES
                       AIR SEA DIR/SP/G
                 (UTC) (F)     (DEG/KT/KT) (MB)
THOMAS PT LIGHT  0300   65 65   20/  8/  9   N/A
BALT KEY BRIDGE  0248   64      40/  3/  4 1013.7R
COVE POINT       0248   68      80/  5/  7 1013.3R
LEWISETTA        0248   68 71  100/  5/  5 1012.4R
SOLOMONS ISLAND  0248   69 68  100/  2/  3   N/A
PINEY POINT      0248           CALM  /  2   N/A

$$





USA.gov is the U.S. government's official web portal to all federal, state and local government web resources and services.